Regional Weather Roundup
Issued by NWS

Home | Current Version | Previous Version | Text Only | Print | Product List | Glossary Off
Versions: 1 2 3 4 5 6 7 8 9 10 11 12 13 14 15 16 17 18 19 20 21 22 23 24 25 26 27 28 29 30 31 32 33 34 35 36 37 38 39 40 41 42 43 44 45 46 47 48 49 50

000
ASUS43 KIND 252059
RWRIN

WEATHER ROUNDUP FOR INDIANA
NATIONAL WEATHER SERVICE INDIANAPOLIS IN
500 PM EDT SAT APR 25 2015

NOTE: "FAIR" INDICATES FEW OR NO CLOUDS BELOW 12,000 FEET WITH NO
SIGNIFICANT WEATHER AND/OR OBSTRUCTIONS TO VISIBILITY.

* - STATION DOES NOT REPORT WEATHER SUCH AS PRECIPITATION OR FOG.

+ - STATION NOT QUALITY CONTROLLED BY THE NATIONAL WEATHER SERVICE.
    USE DATA WITH CAUTION...ESPECIALLY DEWPOINT AND RELATIVE
    HUMIDITY OBSERVATIONS.

INZ001>003-010>013-019-020-252200-
NORTHWEST INDIANA

CITY           SKY/WX    TMP DP  RH WIND       PRES   REMARKS
GARY /AIRPORT/ LGT RAIN  46  41  81 NE18G37   29.70F

$$

LMZ046-743>745-252200-
SOUTHERN LAKE MICHIGAN

STATION/POSITION TIME  TEMP    WIND        PRES    WAVE
                       AIR SEA DIR/SP/G            HT
                 (UTC) (F)     (DEG/KT/KT) (MB)    (FT)
BURNS HARBOR     2000   45      60/ 21/ 24 1006.4F
MICHIGAN CITY    2000   44      50/ 13/ 14   N/A
5NW MICH CITY    2000   44 45   80/ 16/ 19   N/A     1

$$

INZ004-005-014>016-021>024-252200-
NORTH CENTRAL INDIANA

CITY           SKY/WX    TMP DP  RH WIND       PRES   REMARKS
GOSHEN         LGT RAIN  46  42  86 E13       29.76F FOG
SOUTH BEND     CLOUDY    47  41  80 E16G23    29.75F

$$

INZ006>009-017-018-025>027-252200-
NORTHEAST INDIANA

CITY           SKY/WX    TMP DP  RH WIND       PRES   REMARKS
ANGOLA *+      CLOUDY    45  37  76 E9        29.79R
FORT WAYNE     RAIN      46  43  89 E14       29.75F FOG

$$

INZ028-029-035-036-043>045-051>053-252200-
WEST CENTRAL INDIANA

CITY           SKY/WX    TMP DP  RH WIND       PRES   REMARKS
CRAWFORDSVL +  CLOUDY    45  40  83 E16G24    29.61S
GREENCASTLE +  CLOUDY    45  41  87 E14       29.60F
LAFAYETTE      CLOUDY    45  42  89 E20G25    29.62F
TERRE HAUTE    CLOUDY    50  47  89 E14       29.58S

$$

INZ030>032-037>040-046>048-054>057-064-065-252200-
CENTRAL INDIANA

CITY           SKY/WX    TMP DP  RH WIND       PRES   REMARKS
COLUMBUS       LGT RAIN  46  45  93 E14       29.63S FOG
GREENWOOD *+   CLOUDY    46  41  81 E16       29.63F
INDIANAPOLIS   CLOUDY    47  43  86 E15       29.61F
-EAGLE CREEK   CLOUDY    45  42  89 E12G20    29.63F
KOKOMO *+      CLOUDY    45  41  87 E18       29.66F
MT COMFORT *+  CLOUDY    45 N/A N/A E14       29.64F
SHELBYVILLE    PTSUNNY   48  43  82 E16G24    29.62F

$$

INZ033-034-041-042-049-050-058-059-252200-
EAST CENTRAL INDIANA

CITY           SKY/WX    TMP DP  RH WIND       PRES   REMARKS
MUNCIE         LGT RAIN  44  40  85 NE14      29.70R

$$

INZ060-061-067>069-081>083-085>088-252200-
SOUTHWEST INDIANA

CITY           SKY/WX    TMP DP  RH WIND       PRES   REMARKS
EVANSVILLE     PTSUNNY   74  58  57 NW9       29.47F
HUNTINGBURG *+ PTSUNNY   63  57  82 NE9       29.52S

$$

INZ062-063-066-070>080-084-089>092-252200-
SOUTH CENTRAL AND SOUTHEAST INDIANA

CITY           SKY/WX    TMP DP  RH WIND       PRES   REMARKS
BLOOMINGTON    CLOUDY    51  49  92 E13G20    29.58S FOG
MADISON *+     CLOUDY    50  46  87 E12G17    29.61F
SEYMOUR +      CLOUDY    52  52 100 E10       29.60S FOG

$$




USA.gov is the U.S. government's official web portal to all federal, state and local government web resources and services.